Date_Time,Julian_Date,Latitude,Longitude,Instrument_Depth,Water_Temperature
(yyyy-mm-dd hh:mn:ss UTC),(JD),(+ deg. North),(+ deg. East),(m),(deg. C)
1983-03-22 18:00:00 UTC,2445416.250000,28.7317,-95.2428,0036,16.6000
1983-03-22 18:30:00 UTC,2445416.270833,28.7317,-95.2428,0036,16.6000
1983-03-22 19:00:00 UTC,2445416.291667,28.7317,-95.2428,0036,16.6000
1983-03-22 19:30:00 UTC,2445416.312500,28.7317,-95.2428,0036,16.6000
1983-03-22 20:00:00 UTC,2445416.333333,28.7317,-95.2428,0036,16.6000
1983-03-22 20:30:00 UTC,2445416.354167,28.7317,-95.2428,0036,16.6000
1983-03-22 21:00:00 UTC,2445416.375000,28.7317,-95.2428,0036,16.6000
1983-03-22 21:30:00 UTC,2445416.395833,28.7317,-95.2428,0036,16.6000
1983-03-22 22:00:00 UTC,2445416.416667,28.7317,-95.2428,0036,16.6000
1983-03-22 22:30:00 UTC,2445416.437500,28.7317,-95.2428,0036,16.6000
1983-03-22 23:00:00 UTC,2445416.458333,28.7317,-95.2428,0036,16.6000
1983-03-22 23:30:00 UTC,2445416.479167,28.7317,-95.2428,0036,16.6000
1983-03-23 00:00:00 UTC,2445416.500000,28.7317,-95.2428,0036,16.6000
1983-03-23 00:30:00 UTC,2445416.520833,28.7317,-95.2428,0036,16.6000
1983-03-23 01:00:00 UTC,2445416.541667,28.7317,-95.2428,0036,16.6000
1983-03-23 01:30:00 UTC,2445416.562500,28.7317,-95.2428,0036,16.6000
1983-03-23 02:00:00 UTC,2445416.583333,28.7317,-95.2428,0036,16.6000
1983-03-23 02:30:00 UTC,2445416.604167,28.7317,-95.2428,0036,16.6000
1983-03-23 03:00:00 UTC,2445416.625000,28.7317,-95.2428,0036,16.6000
1983-03-23 03:30:00 UTC,2445416.645833,28.7317,-95.2428,0036,16.6000
1983-03-23 04:00:00 UTC,2445416.666667,28.7317,-95.2428,0036,16.6000
1983-03-23 04:30:00 UTC,2445416.687500,28.7317,-95.2428,0036,16.6000
1983-03-23 05:00:00 UTC,2445416.708333,28.7317,-95.2428,0036,16.6000
1983-03-23 05:30:00 UTC,2445416.729167,28.7317,-95.2428,0036,16.6000
1983-03-23 06:00:00 UTC,2445416.750000,28.7317,-95.2428,0036,16.6000
1983-03-23 06:30:00 UTC,2445416.770833,28.7317,-95.2428,0036,16.6000
1983-03-23 07:00:00 UTC,2445416.791667,28.7317,-95.2428,0036,16.6000
1983-03-23 07:30:00 UTC,2445416.812500,28.7317,-95.2428,0036,16.6000
1983-03-23 08:00:00 UTC,2445416.833333,28.7317,-95.2428,0036,16.6000
1983-03-23 08:30:00 UTC,2445416.854167,28.7317,-95.2428,0036,16.6000
1983-03-23 09:00:00 UTC,2445416.875000,28.7317,-95.2428,0036,16.6000
1983-03-23 09:30:00 UTC,2445416.895833,28.7317,-95.2428,0036,16.6000
1983-03-23 10:00:00 UTC,2445416.916667,28.7317,-95.2428,0036,16.6000
1983-03-23 10:30:00 UTC,2445416.937500,28.7317,-95.2428,0036,16.6000
1983-03-23 11:00:00 UTC,2445416.958333,28.7317,-95.2428,0036,16.6000
1983-03-23 11:30:00 UTC,2445416.979167,28.7317,-95.2428,0036,16.6000
1983-03-23 12:00:00 UTC,2445417.000000,28.7317,-95.2428,0036,16.6000
1983-03-23 12:30:00 UTC,2445417.020833,28.7317,-95.2428,0036,16.6000
1983-03-23 13:00:00 UTC,2445417.041667,28.7317,-95.2428,0036,16.6000
1983-03-23 13:30:00 UTC,2445417.062500,28.7317,-95.2428,0036,16.6000
1983-03-23 14:00:00 UTC,2445417.083333,28.7317,-95.2428,0036,16.6000
1983-03-23 14:30:00 UTC,2445417.104167,28.7317,-95.2428,0036,16.6000
1983-03-23 15:00:00 UTC,2445417.125000,28.7317,-95.2428,0036,16.6000
1983-03-23 15:30:00 UTC,2445417.145833,28.7317,-95.2428,0036,16.6000
1983-03-23 16:00:00 UTC,2445417.166667,28.7317,-95.2428,0036,16.6000
1983-03-23 16:30:00 UTC,2445417.187500,28.7317,-95.2428,0036,16.6000
1983-03-23 17:00:00 UTC,2445417.208333,28.7317,-95.2428,0036,16.6000
1983-03-23 17:30:00 UTC,2445417.229167,28.7317,-95.2428,0036,16.6000
1983-03-23 18:00:00 UTC,2445417.250000,28.7317,-95.2428,0036,16.6000
1983-03-23 18:30:00 UTC,2445417.270833,28.7317,-95.2428,0036,16.6000
1983-03-23 19:00:00 UTC,2445417.291667,28.7317,-95.2428,0036,16.5000
1983-03-23 19:30:00 UTC,2445417.312500,28.7317,-95.2428,0036,16.5000
1983-03-23 20:00:00 UTC,2445417.333333,28.7317,-95.2428,0036,16.5000
1983-03-23 20:30:00 UTC,2445417.354167,28.7317,-95.2428,0036,16.7000
1983-03-23 21:00:00 UTC,2445417.375000,28.7317,-95.2428,0036,16.8000
1983-03-23 21:30:00 UTC,2445417.395833,28.7317,-95.2428,0036,16.8000
1983-03-23 22:00:00 UTC,2445417.416667,28.7317,-95.2428,0036,16.8000
1983-03-23 22:30:00 UTC,2445417.437500,28.7317,-95.2428,0036,16.8000
1983-03-23 23:00:00 UTC,2445417.458333,28.7317,-95.2428,0036,16.7000
1983-03-23 23:30:00 UTC,2445417.479167,28.7317,-95.2428,0036,16.7000
1983-03-24 00:00:00 UTC,2445417.500000,28.7317,-95.2428,0036,16.7000
1983-03-24 00:30:00 UTC,2445417.520833,28.7317,-95.2428,0036,16.7000
1983-03-24 01:00:00 UTC,2445417.541667,28.7317,-95.2428,0036,16.7000
1983-03-24 01:30:00 UTC,2445417.562500,28.7317,-95.2428,0036,16.8000
1983-03-24 02:00:00 UTC,2445417.583333,28.7317,-95.2428,0036,16.8000
1983-03-24 02:30:00 UTC,2445417.604167,28.7317,-95.2428,0036,16.8000
1983-03-24 03:00:00 UTC,2445417.625000,28.7317,-95.2428,0036,16.8000
1983-03-24 03:30:00 UTC,2445417.645833,28.7317,-95.2428,0036,16.8000
1983-03-24 04:00:00 UTC,2445417.666667,28.7317,-95.2428,0036,16.8000
1983-03-24 04:30:00 UTC,2445417.687500,28.7317,-95.2428,0036,16.8000
1983-03-24 05:00:00 UTC,2445417.708333,28.7317,-95.2428,0036,16.8000
1983-03-24 05:30:00 UTC,2445417.729167,28.7317,-95.2428,0036,16.8000
1983-03-24 06:00:00 UTC,2445417.750000,28.7317,-95.2428,0036,16.7000
1983-03-24 06:30:00 UTC,2445417.770833,28.7317,-95.2428,0036,16.7000
1983-03-24 07:00:00 UTC,2445417.791667,28.7317,-95.2428,0036,16.7000
1983-03-24 07:30:00 UTC,2445417.812500,28.7317,-95.2428,0036,16.7000
1983-03-24 08:00:00 UTC,2445417.833333,28.7317,-95.2428,0036,16.6000
1983-03-24 08:30:00 UTC,2445417.854167,28.7317,-95.2428,0036,16.6000
1983-03-24 09:00:00 UTC,2445417.875000,28.7317,-95.2428,0036,16.6000
1983-03-24 09:30:00 UTC,2445417.895833,28.7317,-95.2428,0036,16.6000
1983-03-24 10:00:00 UTC,2445417.916667,28.7317,-95.2428,0036,16.6000
1983-03-24 10:30:00 UTC,2445417.937500,28.7317,-95.2428,0036,16.6000
1983-03-24 11:00:00 UTC,2445417.958333,28.7317,-95.2428,0036,16.6000
1983-03-24 11:30:00 UTC,2445417.979167,28.7317,-95.2428,0036,16.6000
1983-03-24 12:00:00 UTC,2445418.000000,28.7317,-95.2428,0036,16.6000
1983-03-24 12:30:00 UTC,2445418.020833,28.7317,-95.2428,0036,16.6000
1983-03-24 13:00:00 UTC,2445418.041667,28.7317,-95.2428,0036,16.6000
1983-03-24 13:30:00 UTC,2445418.062500,28.7317,-95.2428,0036,16.6000
1983-03-24 14:00:00 UTC,2445418.083333,28.7317,-95.2428,0036,16.6000
1983-03-24 14:30:00 UTC,2445418.104167,28.7317,-95.2428,0036,16.6000
1983-03-24 15:00:00 UTC,2445418.125000,28.7317,-95.2428,0036,16.6000
1983-03-24 15:30:00 UTC,2445418.145833,28.7317,-95.2428,0036,16.6000
1983-03-24 16:00:00 UTC,2445418.166667,28.7317,-95.2428,0036,16.5000
1983-03-24 16:30:00 UTC,2445418.187500,28.7317,-95.2428,0036,16.5000
1983-03-24 17:00:00 UTC,2445418.208333,28.7317,-95.2428,0036,16.5000
1983-03-24 17:30:00 UTC,2445418.229167,28.7317,-95.2428,0036,16.6000
1983-03-24 18:00:00 UTC,2445418.250000,28.7317,-95.2428,0036,16.6000
1983-03-24 18:30:00 UTC,2445418.270833,28.7317,-95.2428,0036,16.6000
1983-03-24 19:00:00 UTC,2445418.291667,28.7317,-95.2428,0036,16.5000
1983-03-24 19:30:00 UTC,2445418.312500,28.7317,-95.2428,0036,16.5000
1983-03-24 20:00:00 UTC,2445418.333333,28.7317,-95.2428,0036,16.5000
1983-03-24 20:30:00 UTC,2445418.354167,28.7317,-95.2428,0036,16.5000
1983-03-24 21:00:00 UTC,2445418.375000,28.7317,-95.2428,0036,16.5000
1983-03-24 21:30:00 UTC,2445418.395833,28.7317,-95.2428,0036,16.5000
1983-03-24 22:00:00 UTC,2445418.416667,28.7317,-95.2428,0036,16.5000
1983-03-24 22:30:00 UTC,2445418.437500,28.7317,-95.2428,0036,16.5000
1983-03-24 23:00:00 UTC,2445418.458333,28.7317,-95.2428,0036,16.5000
1983-03-24 23:30:00 UTC,2445418.479167,28.7317,-95.2428,0036,16.5000
1983-03-25 00:00:00 UTC,2445418.500000,28.7317,-95.2428,0036,16.5000
1983-03-25 00:30:00 UTC,2445418.520833,28.7317,-95.2428,0036,16.5000
1983-03-25 01:00:00 UTC,2445418.541667,28.7317,-95.2428,0036,16.5000
1983-03-25 01:30:00 UTC,2445418.562500,28.7317,-95.2428,0036,16.5000
1983-03-25 02:00:00 UTC,2445418.583333,28.7317,-95.2428,0036,16.5000
1983-03-25 02:30:00 UTC,2445418.604167,28.7317,-95.2428,0036,16.5000
1983-03-25 03:00:00 UTC,2445418.625000,28.7317,-95.2428,0036,16.5000
1983-03-25 03:30:00 UTC,2445418.645833,28.7317,-95.2428,0036,16.5000
1983-03-25 04:00:00 UTC,2445418.666667,28.7317,-95.2428,0036,16.5000
1983-03-25 04:30:00 UTC,2445418.687500,28.7317,-95.2428,0036,16.5000
1983-03-25 05:00:00 UTC,2445418.708333,28.7317,-95.2428,0036,16.4000
1983-03-25 05:30:00 UTC,2445418.729167,28.7317,-95.2428,0036,16.4000
1983-03-25 06:00:00 UTC,2445418.750000,28.7317,-95.2428,0036,16.4000
1983-03-25 06:30:00 UTC,2445418.770833,28.7317,-95.2428,0036,16.4000
1983-03-25 07:00:00 UTC,2445418.791667,28.7317,-95.2428,0036,16.4000
1983-03-25 07:30:00 UTC,2445418.812500,28.7317,-95.2428,0036,16.4000
1983-03-25 08:00:00 UTC,2445418.833333,28.7317,-95.2428,0036,16.4000
1983-03-25 08:30:00 UTC,2445418.854167,28.7317,-95.2428,0036,16.4000
1983-03-25 09:00:00 UTC,2445418.875000,28.7317,-95.2428,0036,16.4000
1983-03-25 09:30:00 UTC,2445418.895833,28.7317,-95.2428,0036,16.4000
1983-03-25 10:00:00 UTC,2445418.916667,28.7317,-95.2428,0036,16.4000
1983-03-25 10:30:00 UTC,2445418.937500,28.7317,-95.2428,0036,16.4000
1983-03-25 11:00:00 UTC,2445418.958333,28.7317,-95.2428,0036,16.4000
1983-03-25 11:30:00 UTC,2445418.979167,28.7317,-95.2428,0036,16.4000
1983-03-25 12:00:00 UTC,2445419.000000,28.7317,-95.2428,0036,16.4000
1983-03-25 12:30:00 UTC,2445419.020833,28.7317,-95.2428,0036,16.4000
1983-03-25 13:00:00 UTC,2445419.041667,28.7317,-95.2428,0036,16.4000
1983-03-25 13:30:00 UTC,2445419.062500,28.7317,-95.2428,0036,16.4000
1983-03-25 14:00:00 UTC,2445419.083333,28.7317,-95.2428,0036,16.4000
1983-03-25 14:30:00 UTC,2445419.104167,28.7317,-95.2428,0036,16.4000
1983-03-25 15:00:00 UTC,2445419.125000,28.7317,-95.2428,0036,16.4000
1983-03-25 15:30:00 UTC,2445419.145833,28.7317,-95.2428,0036,16.5000
1983-03-25 16:00:00 UTC,2445419.166667,28.7317,-95.2428,0036,16.5000
1983-03-25 16:30:00 UTC,2445419.187500,28.7317,-95.2428,0036,16.5000
1983-03-25 17:00:00 UTC,2445419.208333,28.7317,-95.2428,0036,16.5000
1983-03-25 17:30:00 UTC,2445419.229167,28.7317,-95.2428,0036,16.6000
1983-03-25 18:00:00 UTC,2445419.250000,28.7317,-95.2428,0036,16.6000
1983-03-25 18:30:00 UTC,2445419.270833,28.7317,-95.2428,0036,16.6000
1983-03-25 19:00:00 UTC,2445419.291667,28.7317,-95.2428,0036,16.6000
1983-03-25 19:30:00 UTC,2445419.312500,28.7317,-95.2428,0036,16.6000
1983-03-25 20:00:00 UTC,2445419.333333,28.7317,-95.2428,0036,16.6000
1983-03-25 20:30:00 UTC,2445419.354167,28.7317,-95.2428,0036,16.6000
1983-03-25 21:00:00 UTC,2445419.375000,28.7317,-95.2428,0036,16.6000
1983-03-25 21:30:00 UTC,2445419.395833,28.7317,-95.2428,0036,16.6000
1983-03-25 22:00:00 UTC,2445419.416667,28.7317,-95.2428,0036,16.6000
1983-03-25 22:30:00 UTC,2445419.437500,28.7317,-95.2428,0036,16.6000
1983-03-25 23:00:00 UTC,2445419.458333,28.7317,-95.2428,0036,16.6000
1983-03-25 23:30:00 UTC,2445419.479167,28.7317,-95.2428,0036,16.6000
1983-03-26 00:00:00 UTC,2445419.500000,28.7317,-95.2428,0036,16.6000
1983-03-26 00:30:00 UTC,2445419.520833,28.7317,-95.2428,0036,16.6000
1983-03-26 01:00:00 UTC,2445419.541667,28.7317,-95.2428,0036,16.6000
1983-03-26 01:30:00 UTC,2445419.562500,28.7317,-95.2428,0036,16.6000
1983-03-26 02:00:00 UTC,2445419.583333,28.7317,-95.2428,0036,16.6000
1983-03-26 02:30:00 UTC,2445419.604167,28.7317,-95.2428,0036,16.6000
1983-03-26 03:00:00 UTC,2445419.625000,28.7317,-95.2428,0036,16.6000
1983-03-26 03:30:00 UTC,2445419.645833,28.7317,-95.2428,0036,16.6000
1983-03-26 04:00:00 UTC,2445419.666667,28.7317,-95.2428,0036,16.6000
1983-03-26 04:30:00 UTC,2445419.687500,28.7317,-95.2428,0036,16.6000
1983-03-26 05:00:00 UTC,2445419.708333,28.7317,-95.2428,0036,16.6000
1983-03-26 05:30:00 UTC,2445419.729167,28.7317,-95.2428,0036,16.6000
1983-03-26 06:00:00 UTC,2445419.750000,28.7317,-95.2428,0036,16.6000
1983-03-26 06:30:00 UTC,2445419.770833,28.7317,-95.2428,0036,16.5000
1983-03-26 07:00:00 UTC,2445419.791667,28.7317,-95.2428,0036,16.5000
1983-03-26 07:30:00 UTC,2445419.812500,28.7317,-95.2428,0036,16.5000
1983-03-26 08:00:00 UTC,2445419.833333,28.7317,-95.2428,0036,16.5000
1983-03-26 08:30:00 UTC,2445419.854167,28.7317,-95.2428,0036,16.5000
1983-03-26 09:00:00 UTC,2445419.875000,28.7317,-95.2428,0036,16.5000
1983-03-26 09:30:00 UTC,2445419.895833,28.7317,-95.2428,0036,16.5000
1983-03-26 10:00:00 UTC,2445419.916667,28.7317,-95.2428,0036,16.5000
1983-03-26 10:30:00 UTC,2445419.937500,28.7317,-95.2428,0036,16.5000
1983-03-26 11:00:00 UTC,2445419.958333,28.7317,-95.2428,0036,16.5000
1983-03-26 11:30:00 UTC,2445419.979167,28.7317,-95.2428,0036,16.5000
1983-03-26 12:00:00 UTC,2445420.000000,28.7317,-95.2428,0036,16.5000
1983-03-26 12:30:00 UTC,2445420.020833,28.7317,-95.2428,0036,16.4000
1983-03-26 13:00:00 UTC,2445420.041667,28.7317,-95.2428,0036,16.4000
1983-03-26 13:30:00 UTC,2445420.062500,28.7317,-95.2428,0036,16.4000
1983-03-26 14:00:00 UTC,2445420.083333,28.7317,-95.2428,0036,16.3000
1983-03-26 14:30:00 UTC,2445420.104167,28.7317,-95.2428,0036,16.3000
1983-03-26 15:00:00 UTC,2445420.125000,28.7317,-95.2428,0036,16.3000
1983-03-26 15:30:00 UTC,2445420.145833,28.7317,-95.2428,0036,16.2000
1983-03-26 16:00:00 UTC,2445420.166667,28.7317,-95.2428,0036,16.1000
1983-03-26 16:30:00 UTC,2445420.187500,28.7317,-95.2428,0036,16.1000
1983-03-26 17:00:00 UTC,2445420.208333,28.7317,-95.2428,0036,16.2000
1983-03-26 17:30:00 UTC,2445420.229167,28.7317,-95.2428,0036,16.2000
1983-03-26 18:00:00 UTC,2445420.250000,28.7317,-95.2428,0036,16.2000
1983-03-26 18:30:00 UTC,2445420.270833,28.7317,-95.2428,0036,16.2000
1983-03-26 19:00:00 UTC,2445420.291667,28.7317,-95.2428,0036,16.3000
1983-03-26 19:30:00 UTC,2445420.312500,28.7317,-95.2428,0036,16.3000
1983-03-26 20:00:00 UTC,2445420.333333,28.7317,-95.2428,0036,16.3000
1983-03-26 20:30:00 UTC,2445420.354167,28.7317,-95.2428,0036,16.4000
1983-03-26 21:00:00 UTC,2445420.375000,28.7317,-95.2428,0036,16.5000
1983-03-26 21:30:00 UTC,2445420.395833,28.7317,-95.2428,0036,16.5000
1983-03-26 22:00:00 UTC,2445420.416667,28.7317,-95.2428,0036,16.6000
1983-03-26 22:30:00 UTC,2445420.437500,28.7317,-95.2428,0036,16.6000
1983-03-26 23:00:00 UTC,2445420.458333,28.7317,-95.2428,0036,16.6000
1983-03-26 23:30:00 UTC,2445420.479167,28.7317,-95.2428,0036,16.6000
1983-03-27 00:00:00 UTC,2445420.500000,28.7317,-95.2428,0036,16.6000
1983-03-27 00:30:00 UTC,2445420.520833,28.7317,-95.2428,0036,16.6000
1983-03-27 01:00:00 UTC,2445420.541667,28.7317,-95.2428,0036,16.6000
1983-03-27 01:30:00 UTC,2445420.562500,28.7317,-95.2428,0036,16.6000
1983-03-27 02:00:00 UTC,2445420.583333,28.7317,-95.2428,0036,16.6000
1983-03-27 02:30:00 UTC,2445420.604167,28.7317,-95.2428,0036,16.6000
1983-03-27 03:00:00 UTC,2445420.625000,28.7317,-95.2428,0036,16.6000
1983-03-27 03:30:00 UTC,2445420.645833,28.7317,-95.2428,0036,16.6000
1983-03-27 04:00:00 UTC,2445420.666667,28.7317,-95.2428,0036,16.6000
1983-03-27 04:30:00 UTC,2445420.687500,28.7317,-95.2428,0036,16.6000
1983-03-27 05:00:00 UTC,2445420.708333,28.7317,-95.2428,0036,16.6000
1983-03-27 05:30:00 UTC,2445420.729167,28.7317,-95.2428,0036,16.6000
1983-03-27 06:00:00 UTC,2445420.750000,28.7317,-95.2428,0036,16.6000
1983-03-27 06:30:00 UTC,2445420.770833,28.7317,-95.2428,0036,16.6000
1983-03-27 07:00:00 UTC,2445420.791667,28.7317,-95.2428,0036,16.6000
1983-03-27 07:30:00 UTC,2445420.812500,28.7317,-95.2428,0036,16.6000
1983-03-27 08:00:00 UTC,2445420.833333,28.7317,-95.2428,0036,16.6000
1983-03-27 08:30:00 UTC,2445420.854167,28.7317,-95.2428,0036,16.6000
1983-03-27 09:00:00 UTC,2445420.875000,28.7317,-95.2428,0036,16.6000
1983-03-27 09:30:00 UTC,2445420.895833,28.7317,-95.2428,0036,16.6000
1983-03-27 10:00:00 UTC,2445420.916667,28.7317,-95.2428,0036,16.6000
1983-03-27 10:30:00 UTC,2445420.937500,28.7317,-95.2428,0036,16.5000
1983-03-27 11:00:00 UTC,2445420.958333,28.7317,-95.2428,0036,16.5000
1983-03-27 11:30:00 UTC,2445420.979167,28.7317,-95.2428,0036,16.5000
1983-03-27 12:00:00 UTC,2445421.000000,28.7317,-95.2428,0036,16.5000
1983-03-27 12:30:00 UTC,2445421.020833,28.7317,-95.2428,0036,16.4000
1983-03-27 13:00:00 UTC,2445421.041667,28.7317,-95.2428,0036,16.4000
1983-03-27 13:30:00 UTC,2445421.062500,28.7317,-95.2428,0036,16.3000
1983-03-27 14:00:00 UTC,2445421.083333,28.7317,-95.2428,0036,16.3000
1983-03-27 14:30:00 UTC,2445421.104167,28.7317,-95.2428,0036,16.3000
1983-03-27 15:00:00 UTC,2445421.125000,28.7317,-95.2428,0036,16.3000
1983-03-27 15:30:00 UTC,2445421.145833,28.7317,-95.2428,0036,16.3000
1983-03-27 16:00:00 UTC,2445421.166667,28.7317,-95.2428,0036,16.3000
1983-03-27 16:30:00 UTC,2445421.187500,28.7317,-95.2428,0036,16.4000
1983-03-27 17:00:00 UTC,2445421.208333,28.7317,-95.2428,0036,16.4000
1983-03-27 17:30:00 UTC,2445421.229167,28.7317,-95.2428,0036,16.4000
1983-03-27 18:00:00 UTC,2445421.250000,28.7317,-95.2428,0036,16.5000
1983-03-27 18:30:00 UTC,2445421.270833,28.7317,-95.2428,0036,16.5000
1983-03-27 19:00:00 UTC,2445421.291667,28.7317,-95.2428,0036,16.5000
1983-03-27 19:30:00 UTC,2445421.312500,28.7317,-95.2428,0036,16.5000
1983-03-27 20:00:00 UTC,2445421.333333,28.7317,-95.2428,0036,16.5000
1983-03-27 20:30:00 UTC,2445421.354167,28.7317,-95.2428,0036,16.5000
1983-03-27 21:00:00 UTC,2445421.375000,28.7317,-95.2428,0036,16.5000
1983-03-27 21:30:00 UTC,2445421.395833,28.7317,-95.2428,0036,16.6000
1983-03-27 22:00:00 UTC,2445421.416667,28.7317,-95.2428,0036,16.6000
1983-03-27 22:30:00 UTC,2445421.437500,28.7317,-95.2428,0036,16.6000
1983-03-27 23:00:00 UTC,2445421.458333,28.7317,-95.2428,0036,16.6000
1983-03-27 23:30:00 UTC,2445421.479167,28.7317,-95.2428,0036,16.6000
1983-03-28 00:00:00 UTC,2445421.500000,28.7317,-95.2428,0036,16.6000
1983-03-28 00:30:00 UTC,2445421.520833,28.7317,-95.2428,0036,16.6000
1983-03-28 01:00:00 UTC,2445421.541667,28.7317,-95.2428,0036,16.6000
1983-03-28 01:30:00 UTC,2445421.562500,28.7317,-95.2428,0036,16.6000
1983-03-28 02:00:00 UTC,2445421.583333,28.7317,-95.2428,0036,16.6000
1983-03-28 02:30:00 UTC,2445421.604167,28.7317,-95.2428,0036,16.6000
1983-03-28 03:00:00 UTC,2445421.625000,28.7317,-95.2428,0036,16.6000
1983-03-28 03:30:00 UTC,2445421.645833,28.7317,-95.2428,0036,16.6000
1983-03-28 04:00:00 UTC,2445421.666667,28.7317,-95.2428,0036,16.6000
1983-03-28 04:30:00 UTC,2445421.687500,28.7317,-95.2428,0036,16.6000
1983-03-28 05:00:00 UTC,2445421.708333,28.7317,-95.2428,0036,16.6000
1983-03-28 05:30:00 UTC,2445421.729167,28.7317,-95.2428,0036,16.6000
1983-03-28 06:00:00 UTC,2445421.750000,28.7317,-95.2428,0036,16.6000
1983-03-28 06:30:00 UTC,2445421.770833,28.7317,-95.2428,0036,16.6000
1983-03-28 07:00:00 UTC,2445421.791667,28.7317,-95.2428,0036,16.6000
1983-03-28 07:30:00 UTC,2445421.812500,28.7317,-95.2428,0036,16.6000
1983-03-28 08:00:00 UTC,2445421.833333,28.7317,-95.2428,0036,16.6000
1983-03-28 08:30:00 UTC,2445421.854167,28.7317,-95.2428,0036,16.6000
1983-03-28 09:00:00 UTC,2445421.875000,28.7317,-95.2428,0036,16.6000
1983-03-28 09:30:00 UTC,2445421.895833,28.7317,-95.2428,0036,16.6000
1983-03-28 10:00:00 UTC,2445421.916667,28.7317,-95.2428,0036,16.6000
1983-03-28 10:30:00 UTC,2445421.937500,28.7317,-95.2428,0036,16.5000
1983-03-28 11:00:00 UTC,2445421.958333,28.7317,-95.2428,0036,16.5000
1983-03-28 11:30:00 UTC,2445421.979167,28.7317,-95.2428,0036,16.5000
1983-03-28 12:00:00 UTC,2445422.000000,28.7317,-95.2428,0036,16.5000
1983-03-28 12:30:00 UTC,2445422.020833,28.7317,-95.2428,0036,16.5000
1983-03-28 13:00:00 UTC,2445422.041667,28.7317,-95.2428,0036,16.5000
1983-03-28 13:30:00 UTC,2445422.062500,28.7317,-95.2428,0036,16.5000
1983-03-28 14:00:00 UTC,2445422.083333,28.7317,-95.2428,0036,16.5000
1983-03-28 14:30:00 UTC,2445422.104167,28.7317,-95.2428,0036,16.5000
1983-03-28 15:00:00 UTC,2445422.125000,28.7317,-95.2428,0036,16.5000
1983-03-28 15:30:00 UTC,2445422.145833,28.7317,-95.2428,0036,16.6000
1983-03-28 16:00:00 UTC,2445422.166667,28.7317,-95.2428,0036,16.6000
1983-03-28 16:30:00 UTC,2445422.187500,28.7317,-95.2428,0036,16.6000
1983-03-28 17:00:00 UTC,2445422.208333,28.7317,-95.2428,0036,16.6000
1983-03-28 17:30:00 UTC,2445422.229167,28.7317,-95.2428,0036,16.6000
1983-03-28 18:00:00 UTC,2445422.250000,28.7317,-95.2428,0036,16.6000
1983-03-28 18:30:00 UTC,2445422.270833,28.7317,-95.2428,0036,16.6000
1983-03-28 19:00:00 UTC,2445422.291667,28.7317,-95.2428,0036,16.6000
1983-03-28 19:30:00 UTC,2445422.312500,28.7317,-95.2428,0036,16.7000
1983-03-28 20:00:00 UTC,2445422.333333,28.7317,-95.2428,0036,16.7000
1983-03-28 20:30:00 UTC,2445422.354167,28.7317,-95.2428,0036,16.6000
1983-03-28 21:00:00 UTC,2445422.375000,28.7317,-95.2428,0036,16.7000
1983-03-28 21:30:00 UTC,2445422.395833,28.7317,-95.2428,0036,16.8000
1983-03-28 22:00:00 UTC,2445422.416667,28.7317,-95.2428,0036,16.9000
1983-03-28 22:30:00 UTC,2445422.437500,28.7317,-95.2428,0036,16.9000
1983-03-28 23:00:00 UTC,2445422.458333,28.7317,-95.2428,0036,16.9000
1983-03-28 23:30:00 UTC,2445422.479167,28.7317,-95.2428,0036,16.9000
1983-03-29 00:00:00 UTC,2445422.500000,28.7317,-95.2428,0036,16.9000
1983-03-29 00:30:00 UTC,2445422.520833,28.7317,-95.2428,0036,16.9000
1983-03-29 01:00:00 UTC,2445422.541667,28.7317,-95.2428,0036,16.9000
1983-03-29 01:30:00 UTC,2445422.562500,28.7317,-95.2428,0036,16.8000
1983-03-29 02:00:00 UTC,2445422.583333,28.7317,-95.2428,0036,16.8000
1983-03-29 02:30:00 UTC,2445422.604167,28.7317,-95.2428,0036,16.7000
1983-03-29 03:00:00 UTC,2445422.625000,28.7317,-95.2428,0036,16.7000
1983-03-29 03:30:00 UTC,2445422.645833,28.7317,-95.2428,0036,16.7000
1983-03-29 04:00:00 UTC,2445422.666667,28.7317,-95.2428,0036,16.7000
1983-03-29 04:30:00 UTC,2445422.687500,28.7317,-95.2428,0036,16.6000
1983-03-29 05:00:00 UTC,2445422.708333,28.7317,-95.2428,0036,16.6000
1983-03-29 05:30:00 UTC,2445422.729167,28.7317,-95.2428,0036,16.6000
1983-03-29 06:00:00 UTC,2445422.750000,28.7317,-95.2428,0036,16.6000
1983-03-29 06:30:00 UTC,2445422.770833,28.7317,-95.2428,0036,16.6000
1983-03-29 07:00:00 UTC,2445422.791667,28.7317,-95.2428,0036,16.6000
1983-03-29 07:30:00 UTC,2445422.812500,28.7317,-95.2428,0036,16.6000
1983-03-29 08:00:00 UTC,2445422.833333,28.7317,-95.2428,0036,16.6000
1983-03-29 08:30:00 UTC,2445422.854167,28.7317,-95.2428,0036,16.6000
1983-03-29 09:00:00 UTC,2445422.875000,28.7317,-95.2428,0036,16.6000
1983-03-29 09:30:00 UTC,2445422.895833,28.7317,-95.2428,0036,16.6000
1983-03-29 10:00:00 UTC,2445422.916667,28.7317,-95.2428,0036,16.6000
1983-03-29 10:30:00 UTC,2445422.937500,28.7317,-95.2428,0036,16.6000
1983-03-29 11:00:00 UTC,2445422.958333,28.7317,-95.2428,0036,16.6000
1983-03-29 11:30:00 UTC,2445422.979167,28.7317,-95.2428,0036,16.6000
1983-03-29 12:00:00 UTC,2445423.000000,28.7317,-95.2428,0036,16.6000
1983-03-29 12:30:00 UTC,2445423.020833,28.7317,-95.2428,0036,16.6000
1983-03-29 13:00:00 UTC,2445423.041667,28.7317,-95.2428,0036,16.5000
1983-03-29 13:30:00 UTC,2445423.062500,28.7317,-95.2428,0036,16.5000
1983-03-29 14:00:00 UTC,2445423.083333,28.7317,-95.2428,0036,16.5000
1983-03-29 14:30:00 UTC,2445423.104167,28.7317,-95.2428,0036,16.5000
1983-03-29 15:00:00 UTC,2445423.125000,28.7317,-95.2428,0036,16.5000
1983-03-29 15:30:00 UTC,2445423.145833,28.7317,-95.2428,0036,16.5000
1983-03-29 16:00:00 UTC,2445423.166667,28.7317,-95.2428,0036,16.5000
1983-03-29 16:30:00 UTC,2445423.187500,28.7317,-95.2428,0036,16.5000
1983-03-29 17:00:00 UTC,2445423.208333,28.7317,-95.2428,0036,16.5000
1983-03-29 17:30:00 UTC,2445423.229167,28.7317,-95.2428,0036,16.5000
1983-03-29 18:00:00 UTC,2445423.250000,28.7317,-95.2428,0036,16.5000
1983-03-29 18:30:00 UTC,2445423.270833,28.7317,-95.2428,0036,16.5000
1983-03-29 19:00:00 UTC,2445423.291667,28.7317,-95.2428,0036,16.5000
1983-03-29 19:30:00 UTC,2445423.312500,28.7317,-95.2428,0036,16.5000
1983-03-29 20:00:00 UTC,2445423.333333,28.7317,-95.2428,0036,16.5000
1983-03-29 20:30:00 UTC,2445423.354167,28.7317,-95.2428,0036,16.5000
1983-03-29 21:00:00 UTC,2445423.375000,28.7317,-95.2428,0036,16.6000
1983-03-29 21:30:00 UTC,2445423.395833,28.7317,-95.2428,0036,16.6000
1983-03-29 22:00:00 UTC,2445423.416667,28.7317,-95.2428,0036,16.5000